Location: Newark
(3.0500°N, 36.0167°E)
Time: 05:36:42
(UTC+00:00)

Transit 2A Rocket - Pass Details

Date: 28 August 2019
Orbit: 592 x 911 km, 66.7° (Epoch: 20 September)

Event Time Altitude Azimuth Distance (km) Brightness Sun altitude
Rises 13:30:03 0° 191° (SSW) 3,533 8.5 31.8°
Reaches altitude 10° 13:32:38 10° 187° (S) 2,593 7.8 31.2°
Maximum altitude 13:38:35 57° 110° (ESE) 1,048 5.8 29.7°
Drops below altitude 10° 13:44:20 10° 32° (NNE) 2,503 7.5 28.3°
Sets 13:46:46 0° 28° (NNE) 3,401 8.2 27.7°
